DW9558 Weather Reports


Display with metric or nautical units.
time (UTC)temp
F
wind
direction
speed
MPH
gust
MPH
rain 1hr
in
rain 24hr
in
rain mn
in
humidity
%
barometer
mb
20260904214523 76 192 0.0 4.0 0.00 0.00 0.00 45 1019.2
20260904213027 77 192 1.0 4.0 0.00 0.00 0.00 46 1019.2
20260904211519 76 192 1.0 6.0 0.00 0.00 0.00 46 1019.2
20260904210015 74 192 0.0 2.0 0.00 0.00 0.00 49 1019.2
20260904204513 73 192 3.0 6.0 0.00 0.00 0.00 50 1019.3
20260904203012 73 192 0.0 3.0 0.00 0.00 0.00 50 1019.3
20260904201510 73 192 0.0 2.0 0.00 0.00 0.00 50 1019.3
20260904200014 73 192 0.0 3.0 0.00 0.00 0.00 51 1019.4
20260904194507 71 192 0.0 2.0 0.00 0.00 0.00 56 1019.6
20260904193008 72 192 0.0 3.0 0.00 0.00 0.00 57 1019.7
20260904191506 71 192 0.0 4.0 0.00 0.00 0.00 59 1019.8
20260904190004 71 192 1.0 4.0 0.00 0.00 0.00 59 1019.8
20260904184606 70 192 0.0 0.0 0.00 0.00 0.00 62 1019.9
20260904183058 70 192 1.0 4.0 0.00 0.00 0.00 62 1020.0
20260904181557 70 192 0.0 2.0 0.00 0.00 0.00 64 1019.9
20260904180052 68 192 2.0 6.0 0.00 0.00 0.00 67 1020.0
20260904174551 66 192 0.0 0.0 0.00 0.00 0.00 71 1020.1
20260904173047 66 192 0.0 0.0 0.00 0.00 0.00 71 1020.0
20260904171552 66 192 1.0 4.0 0.00 0.00 0.00 70 1019.9
20260904170046 66 192 0.0 4.0 0.00 0.00 0.00 71 1019.8
20260904164541 66 192 0.0 2.0 0.00 0.00 0.00 72 1019.7
20260904163041 66 192 0.0 3.0 0.00 0.00 0.00 73 1019.6
20260904161534 64 192 0.0 0.0 0.00 0.00 0.00 77 1019.5
20260904160044 63 192 0.0 0.0 0.00 0.00 0.00 78 1019.5
20260904154528 62 192 0.0 2.0 0.00 0.00 0.00 82 1019.4
20260904153023 61 192 0.0 2.0 0.00 0.00 0.00 84 1019.4
20260904151525 60 192 0.0 3.0 0.00 0.00 0.00 85 1019.4
20260904150031 59 192 0.0 2.0 0.00 0.00 0.00 87 1019.2
20260904144512 59 192 0.0 0.0 0.00 0.00 0.00 88 1019.1
20260904143009 58 192 0.0 0.0 0.00 0.00 0.00 88 1019.0
20260904141511 58 192 0.0 0.0 0.00 0.00 0.00 88 1018.8
20260904140004 59 192 0.0 0.0 0.00 0.00 0.00 88 1018.6
20260904134501 59 192 0.0 0.0 0.00 0.00 0.00 88 1018.4
20260904133104 59 192 0.0 0.0 0.00 0.00 0.00 87 1018.1
20260904131559 60 192 0.0 4.0 0.00 0.00 0.00 86 1018.1
20260904130056 60 192 0.0 1.0 0.00 0.00 0.00 85 1017.9
20260904124605 61 192 0.0 4.0 0.00 0.00 0.00 85 1017.8
20260904123052 61 192 0.0 3.0 0.00 0.00 0.00 84 1017.7
20260904121551 61 192 0.0 2.0 0.00 0.00 0.00 85 1017.7
20260904120054 61 192 0.0 2.0 0.00 0.00 0.00 86 1017.6
20260904114547 61 192 0.0 4.0 0.00 0.00 0.00 87 1017.5
20260904113050 62 192 0.0 5.0 0.00 0.00 0.00 87 1017.4
20260904111545 62 192 0.0 0.0 0.00 0.00 0.00 87 1017.5
20260904110044 62 192 0.0 0.0 0.00 0.00 0.00 87 1017.4
20260904104544 62 192 0.0 0.0 0.00 0.00 0.00 87 1017.3
20260904103046 62 192 0.0 0.0 0.00 0.00 0.00 87 1017.3
20260904101543 62 192 0.0 0.0 0.00 0.00 0.00 87 1017.2
20260904100042 62 192 0.0 0.0 0.00 0.00 0.00 87 1017.2
20260904094542 62 192 0.0 1.0 0.00 0.00 0.00 87 1017.1
20260904093044 62 192 0.0 3.0 0.00 0.00 0.00 87 1017.0
20260904091541 62 192 0.0 4.0 0.00 0.00 0.00 88 1017.0
20260904090042 62 192 0.0 0.0 0.00 0.00 0.00 88 1017.2
20260904084540 62 192 0.0 0.0 0.00 0.00 0.00 88 1017.2
20260904083038 62 192 0.0 0.0 0.00 0.00 0.00 88 1017.3
20260904081537 62 192 0.0 0.0 0.00 0.00 0.00 88 1017.3
20260904080035 62 192 0.0 5.0 0.00 0.00 0.00 88 1017.4
20260904074536 63 192 0.0 0.0 0.00 0.00 0.00 88 1017.4
20260904073033 63 192 0.0 0.0 0.00 0.00 0.00 88 1017.3
20260904071529 63 192 0.0 3.0 0.00 0.00 0.00 87 1017.1
20260904070027 63 192 0.0 3.0 0.00 0.00 0.00 86 1017.1
20260904064525 64 192 0.0 3.0 0.00 0.00 0.00 85 1017.1
20260904063028 65 192 0.0 0.0 0.00 0.00 0.00 83 1017.3
20260904061528 65 192 0.0 1.0 0.00 0.00 0.00 81 1017.3
20260904060024 65 192 0.0 0.0 0.00 0.00 0.00 81 1017.2
20260904054523 66 192 0.0 0.0 0.00 0.00 0.00 81 1017.1
20260904053027 66 192 0.0 0.0 0.00 0.00 0.00 79 1017.3
20260904051549 66 192 0.0 0.0 0.00 0.00 0.00 79 1017.3
20260904050022 66 192 0.0 0.0 0.00 0.00 0.00 78 1017.4
20260904044524 66 192 0.0 0.0 0.00 0.00 0.00 78 1017.4
20260904043021 66 192 0.0 0.0 0.00 0.00 0.00 78 1017.4
20260904041523 66 192 0.0 0.0 0.00 0.00 0.00 78 1017.1
20260904040025 66 192 0.0 0.0 0.00 0.00 0.00 78 1017.2
20260904034522 67 192 0.0 0.0 0.00 0.00 0.00 77 1017.2
20260904033022 67 192 0.0 0.0 0.00 0.00 0.00 75 1017.0
20260904031519 68 192 0.0 0.0 0.00 0.00 0.00 75 1017.0
20260904030018 68 192 0.0 3.0 0.00 0.00 0.00 74 1016.9
20260904024517 68 192 0.0 0.0 0.00 0.00 0.00 74 1017.0
20260904023017 69 192 0.0 0.0 0.00 0.00 0.00 74 1017.1
20260904021517 69 192 0.0 0.0 0.00 0.00 0.00 74 1017.1
20260904020016 69 192 0.0 0.0 0.00 0.00 0.00 74 1017.1
20260904014515 69 192 0.0 2.0 0.00 0.00 0.00 74 1017.1
20260904013015 69 192 0.0 4.0 0.00 0.00 0.00 73 1017.2
20260904011517 70 192 0.0 6.0 0.00 0.00 0.00 72 1017.2
20260904010033 70 192 0.0 4.0 0.00 0.00 0.00 72 1017.3
20260904004513 70 192 3.0 7.0 0.00 0.00 0.00 71 1017.4
20260904003014 71 193 2.0 9.0 0.00 0.00 0.00 69 1017.5
20260904001511 71 194 1.0 7.0 0.00 0.00 0.00 68 1017.3
20260904000009 72 194 2.0 10.0 0.00 0.00 0.00 68 1017.4
20260903234510 72 194 2.0 8.0 0.00 0.00 0.00 66 1017.5
20260903233008 73 195 1.0 8.0 0.00 0.00 0.00 66 1017.5
20260903231507 73 195 2.0 9.0 0.00 0.00 0.00 66 1017.7
20260903230007 73 193 1.0 12.0 0.00 0.00 0.00 65 1017.9
20260903224504 73 193 1.0 10.0 0.00 0.00 0.00 65 1017.9
20260903223008 73 191 2.0 7.0 0.00 0.00 0.00 65 1017.9
20260903221502 73 185 1.0 8.0 0.00 0.00 0.00 66 1018.2
20260903220101 72 184 2.0 8.0 0.00 0.00 0.00 65 1018.3